Simultaneous Nadir Overpasses (SNOs) Predictions

Prediction of SNOs over PacNW region [( 10.00, 139.50) to ( 22.70, 165.60)] between AQUA and NPP Satellites:

Table of predicted SNOs over PacNW region for the next 30.0 days since TLE Epoch: 8/20/2022
Index Date (AQUA) Time (AQUA) AQUA Lat,Lon Date (NPP) Time (NPP) NPP Lat,Lon Distance(km) Time Diff (sec)
1 08/20/2022 15:20:30 22.58, 158.30 08/20/2022 15:23:58 25.18, 154.49 483.11 208
2 08/23/2022 03:41:43 22.66, 146.12 08/23/2022 03:40:37 21.96, 142.68 362.61 66
3 08/31/2022 02:50:16 22.66, 159.02 08/31/2022 02:49:55 21.90, 155.36 385.67 21
4 09/02/2022 16:28:28 10.78, 139.51 09/02/2022 16:25:11 11.09, 136.79 299.11 197
5 09/08/2022 03:34:39 11.91, 149.67 09/08/2022 03:37:37 10.95, 145.27 491.71 178
6 09/10/2022 15:36:12 13.45, 153.02 09/10/2022 15:33:39 14.05, 150.15 317.03 153
7 09/16/2022 02:42:35 10.06, 163.01 09/16/2022 02:46:04 7.90, 158.64 536.72 209
8 09/18/2022 14:45:33 10.05, 165.21 09/18/2022 14:45:04 6.59, 161.11 592.50 29
